Showing default

SAUDISAT 5A, 43831

Orbit data source: Space-Track

SAUDISAT 5A, 43831 is a payload satellite owned by KACST (SA) in SSO that was launched on Fri, 07 Dec 2018 UTC via a CHANG ZHENG 2D launch vehicle from the Jiuquan Satellite Launch Center, China (JSC). Payload-class satellites include a variety of spacecraft equipped with specific instruments for various scientific and technological missions. These include communications satellites like Starlink; space stations such as the ISS; scientific satellites like the Hubble; Earth observation satellites from companies like Planet Labs, Umbra, and HawkEye 360; GPS; miniature CubeSats for education and research; and military/defense satellites.

Loading next visibility...
Identifier
43831, 2018-102A
Orbit
SSO
Country
Flag of UnknownUnknown / SAUD
Related business
Manufacturer
KACST
Mission
Operational Civil Technology
Bus & Motor
SAUDISAT, Unknown motor
Mass
425 kg wet, 425 kg dry
Launch date (UTC)
2018-12-07 (7 years ago)
Launch vehicle
CHANG ZHENG 2D
Launch site
Jiuquan Satellite Launch Center, China (JSC)
Object type
Payload
Rocket body
Debris
Shape & HBR
Box, 1.0 m
Radar Cross Section
2.500 m², Large (>1 m²)

Expand to show TLE details & history
Last TLE update: 7 hours ago

TLE from 7 hours ago
0 SAUDISAT 5A
1 43831U 18102A   25261.02425979  .00005139  00000-0  21411-3 0  9995
2 43831  97.3487 322.9007 0010973  25.1324 335.0446 15.24101022374163
Epoch: 2025-09-18T00:34Z
TLE epoch observation values (Epoch: 2025-09-18T00:34:56.045Z)
Latitude
0.00001°
Longitude
-43.02462°
Altitude
489.747 km
Speed
7.624 km/s
True Right ascension
21h 31m 36s
True Declination
0° 00' 00"
Sunlit
Object was in full shadow at epoch
Visualization orbit readout
Latitude
Unknown
Longitude
Unknown
Altitude
Unknown
Speed
Unknown
Apparent Right ascension
Unknown
Apparent Declination
Unknown
Sunlit
N/A
Visualization observer readout
Local Sidereal Time
00:24:19
Azimuth
Unknown
Elevation
Unknown
Doppler factor
Unknown
Orbital elements
Apogee altitude
497.981 km
Perigee altitude
482.907 km
Semi-major axis
6,868.581 km
Eccentricity
0.0011
Inclination
97.3487°
RAAN
322.9007°
Arg. of periapsis
25.1324°
True anomaly
334.99148°
Mean anomaly
335.0446°
Eccentric anomaly
335.01805°
Mean motion
3.81279 °/min
Orbital period
94.42 mins
BSTAR
0.00021411
Loading maneuver chart data...
Computing Atmospheric mass density...
Loading historical data...
Loading historical data...
Loading historical data...
Loading historical data...
Loading historical data...
Loading historical data...
Loading historical data...

Documentation

Showing up to 5 results
|